Location: Monrovia
(34.7865°N, 86.7139°W)
Time: 22:02:59
(UTC+00:00)

Cosmos 1892 - Pass Details

Date: 14 July 2020
Orbit: 505 x 523 km, 82.5° (Epoch: 08 August)

Event Time Altitude Azimuth Distance (km) Brightness Sun altitude
Exits shadow 02:56:36 62° 125° (SE) 578 2.6 -19.8°
Maximum altitude 02:56:54 65° 95° (E) 563 2.6 -19.8°
Drops below altitude 10° 03:00:41 10° 13° (NNE) 1,740 5.8 -20.4°
Sets 03:02:50 0° 10° (N) 2,634 6.8 -20.7°
